RH
57 51 45 50 53 59 65 62 54 55 52 53 66 82 86 79 74 72 69 58 36 23 15 14 13 16 18 17 16 18 17 14 12 10 10 11 10 8 8 8 7 8 11
63 54 54 55 59 57 62 62 60 56 53 53 63 89 92 88 86 78 74 54 32 21 18 16 18 21 20 17 18 17 14 12 10 10 11 11 11 8 8 8 9 12 10
58 52 53 56 58 59 56 58 59 59 54 50 60 83 91 91 89 80 75 45 31 24 22 21 21 21 20 17 16 14 12 11 11 11 11 11 12 9 9 10 12 11 10
47 43 54 58 58 61 60 58 57 53 53 53 70 90 92 91 88 78 65 40 26 27 28 24 20 26 19 18 15 13 12 12 11 10 10 10 12 10 10 11 12 10 10
50 55 69 60 48 59 54 45 49 50 55 59 77 97 93 93 90 76 55 42 33 34 35 28 24 22 19 17 14 13 13 12 11 10 10 10 11 10 10 10 10 10 10
51 60 66 56 46 55 50 47 42 50 60 66 79 95 92 94 80 61 53 42 39 37 36 28 27 21 20 18 14 14 16 15 13 12 12 11 11 9 9 10 10 10 10
53 52 49 53 52 52 50 41 44 50 61 69 85 99 99 80 66 61 53 40 39 38 36 27 24 21 21 19 15 15 17 17 15 13 12 12 11 9 8 9 10 10 10
56 56 56 54 53 46 37 38 52 61 73 79 92 92 76 67 67 61 48 39 41 42 38 28 22 21 22 20 18 16 17 17 17 15 13 11 9 8 8 10 10 10 10
63 60 55 53 49 44 41 40 66 75 69 66 68 61 63 60 60 56 48 43 44 44 40 30 23 22 21 21 20 17 17 16 17 16 14 13 11 9 9 9 9 9 9
65 63 57 56 55 56 52 55 64 66 63 57 56 55 61 57 57 54 48 46 46 48 46 34 20 21 22 22 21 20 18 17 16 16 15 15 13 11 10 10 10 9 9
82 87 81 80 72 65 63 65 66 62 57 56 55 54 59 58 57 53 51 51 50 52 52 41 26 18 20 21 21 20 19 17 17 16 15 15 15 14 12 12 11 11 11
63 64 66 88 84 74 69 69 63 60 55 54 45 41 44 54 50 55 55 48 50 51 55 51 29 17 18 20 20 20 20 20 19 17 16 15 14 14 14 14 14 13 12
60 61 64 81 89 87 83 78 75 72 68 55 44 40 51 56 51 51 55 46 44 47 45 42 33 33 25 19 20 20 21 20 19 19 19 17 16 15 14 14 15 15 16
71 69 66 70 73 72 78 87 89 90 93 86 55 47 55 57 57 51 52 50 46 46 45 45 42 48 50 36 21 19 19 18 17 17 17 17 16 16 16 17 18 20 21
77 86 88 90 81 76 88 96 97 97 96 79 60 56 55 58 56 54 61 56 51 52 51 51 54 51 46 44 42 27 21 19 18 19 17 17 18 17 22 24 48 59 64
93 94 97 99 95 94 94 92 100 97 98 92 80 71 66 60 55 54 48 50 43 41 40 59 63 65 58 48 43 34 24 22 24 26 25 25 31 42 45 41 57 62 66
88 93 96 97 97 97 96 100 98 96 96 93 93 90 88 79 71 65 68 46 41 32 28 44 51 64 62 49 39 26 26 28 30 33 32 35 56 70 78 72 75 72 68
88 97 96 97 98 98 97 96 94 97 100 100 99 99 98 91 89 71 37 34 34 38 30 22 29 29 28 28 28 39 31 32 34 42 58 78 75 76 75 79 76 72 67
77 77 95 79 88 86 87 91 89 91 100 98 95 94 96 85 76 54 41 33 33 38 36 40 47 49 60 57 63 72 93 93 88 90 88 100 93 92 86 80 70 55 49
60 72 62 58 65 64 74 84 77 78 78 83 84 85 89 84 83 80 85 88 92 90 93 91 91 94 94 100 95 94 97 96 99 99 98 89 78 66 58 60 55 54 50
39 48 45 50 63 59 92 100 94 89 76 77 91 93 98 99 99 100 98 97 95 99 99 98 98 91 83 78 82 82 79 91 94 79 65 63 58 58 54 56 51 47 43
44 46 50 47 55 69 100 99 84 91 96 97 99 100 97 97 98 100 99 96 98 98 97 98 98 97 91 92 97 86 68 61 62 60 54 57 54 53 57 55 48 48 48
55 64 69 71 72 73 76 80 82 85 92 95 86 73 70 72 82 95 82 98 97 98 97 96 97 90 92 88 76 65 61 58 58 54 50 46 46 50 54 50 49 52 56
71 64 77 85 82 77 71 74 72 75 66 56 54 56 56 56 52 64 63 66 78 83 82 93 92 100 97 85 85 78 68 65 61 57 51 47 48 44 46 51 65 71 65
96 90 94 88 94 82 80 85 78 66 64 59 58 60 61 64 70 80 84 87 87 97 72 99 100 100 100 100 90 81 75 72 65 66 58 53 52 47 52 67 69 66 63
98 100 99 100 96 90 87 81 85 96 97 92 87 84 83 83 80 100 97 99 100 96 99 100 100 99 98 98 97 90 76 69 67 67 63 57 69 72 60 61 62 68 81
Wind_Speed
28 27 25 25 24 23 24 22 20 20 19 20 21 21 20 18 19 20 21 22 22 19 16 16 18 17 16 17 18 18 19 20 21 23 24 25 27 27 22 18 14 10 9
29 29 26 25 24 24 25 25 24 22 21 21 22 22 21 20 19 21 21 22 20 17 17 18 18 17 17 17 17 18 21 22 24 25 26 27 28 26 22 17 13 11 11
28 28 28 27 26 25 25 25 25 25 24 23 23 23 23 22 21 22 22 22 20 18 18 17 18 17 18 17 17 20 23 25 28 29 30 30 29 25 21 16 14 13 14
30 30 31 28 26 26 27 28 27 27 26 25 25 25 26 24 24 23 23 21 20 19 19 19 18 17 18 18 20 22 25 28 31 32 32 32 30 25 20 17 15 16 16
31 31 31 30 28 28 28 29 29 28 27 26 26 27 27 26 26 24 23 21 21 21 21 20 19 18 18 20 23 25 28 29 30 31 31 30 28 24 20 18 18 19 20
34 35 33 32 30 31 31 30 30 29 28 26 28 28 27 28 26 25 24 23 22 22 22 21 20 21 20 22 24 27 29 29 28 28 28 28 26 23 20 20 21 22 24
37 36 37 37 35 33 32 30 30 30 30 29 28 28 30 28 27 25 25 24 23 24 24 23 22 23 23 24 25 27 28 28 29 28 27 25 23 22 22 22 24 26 27
37 38 39 38 35 34 32 32 31 31 30 28 30 30 29 29 27 26 26 26 25 25 26 25 25 25 25 26 27 28 29 29 29 29 28 25 24 23 24 27 28 30 32
36 37 37 36 35 34 35 34 31 29 28 28 29 29 30 29 29 28 28 28 28 27 27 28 28 28 27 28 29 29 30 29 29 29 29 28 27 27 28 30 32 33 35
36 36 36 36 36 35 34 34 31 29 29 29 29 30 31 30 30 29 30 30 30 30 30 30 30 31 31 31 31 31 32 31 31 30 31 31 31 32 32 34 36 38 40
36 35 36 36 37 36 34 33 31 29 30 30 31 30 32 32 32 32 31 32 32 32 32 33 33 33 35 34 34 34 34 34 33 33 34 34 34 35 37 39 41 43 45
36 36 35 35 36 36 35 34 32 32 32 32 33 31 32 32 32 33 33 35 34 35 35 35 36 36 37 39 38 38 38 38 37 38 38 38 39 39 40 42 44 46 48
35 34 35 36 37 38 38 36 34 35 35 33 32 32 33 33 33 34 35 36 36 37 38 38 38 39 40 41 42 44 43 42 42 41 42 43 43 43 44 45 46 48 50
38 39 39 38 38 38 38 37 36 38 38 34 34 35 35 35 35 37 38 39 39 38 40 41 43 45 44 44 45 47 47 47 47 47 47 48 47 47 48 48 50 52 54
37 36 36 37 39 38 38 37 39 40 36 35 37 38 38 39 40 41 42 42 43 42 42 44 45 48 48 48 49 48 49 49 51 51 51 52 53 54 54 53 54 58 60
36 35 36 39 38 37 37 38 40 40 39 39 41 41 41 42 43 43 41 42 44 43 44 48 49 50 50 50 50 51 51 51 52 53 54 55 57 58 58 58 62 64 60
38 39 40 44 43 39 38 42 47 47 43 42 44 45 42 44 44 42 42 44 43 42 42 44 45 47 48 47 49 51 52 53 55 57 59 60 60 59 61 62 61 60 60
38 41 44 40 45 37 37 41 41 40 38 41 46 45 42 43 42 41 42 43 44 47 46 45 47 47 48 49 49 51 51 53 55 56 60 62 64 61 57 57 60 62 64
38 44 34 39 36 29 32 27 33 31 33 39 42 40 39 37 39 43 44 45 47 48 49 48 48 49 52 53 51 49 50 54 55 59 60 57 57 59 63 63 62 63 66
40 41 37 36 35 34 32 30 29 32 33 36 37 36 37 40 41 42 44 45 48 47 50 54 49 48 48 51 54 57 52 52 54 54 56 57 59 61 62 63 66 67 70
39 40 40 37 37 35 38 36 34 34 34 37 37 38 39 40 42 44 45 47 49 48 51 43 51 51 51 53 56 57 56 54 57 59 61 61 63 66 69 70 72 73 74
41 40 40 37 38 38 35 32 36 38 39 39 40 41 42 44 45 47 47 50 59 58 51 49 54 56 55 51 50 60 63 63 64 65 66 67 70 71 72 75 77 76 76
43 42 42 41 41 42 43 45 45 44 43 43 46 48 48 48 51 55 54 53 55 50 53 56 60 62 61 60 62 65 67 68 70 71 72 72 74 75 75 77 77 77 76
47 48 48 48 48 48 47 47 47 48 50 52 52 51 52 52 54 54 58 61 61 63 65 64 64 54 56 62 65 66 67 69 72 76 77 76 77 77 77 77 75 75 75
51 52 53 53 53 52 53 52 51 52 54 54 54 55 55 55 55 56 58 63 61 61 60 59 59 65 67 66 69 70 73 75 75 77 77 78 78 78 76 74 73 73 73
56 56 57 57 59 59 58 58 56 55 56 57 59 60 59 57 55 58 61 58 64 59 51 54 53 62 69 71 75 76 75 76 77 77 79 79 76 76 76 74 73 71 72
Wind_Direction
231 233 234 235 229 231 228 228 240 250 256 263 258 257 261 266 274 284 290 296 301 301 300 301 302 305 306 308 306 305 306 307 308 311 313 315 316 314 310 304 296 278 253
230 234 236 237 232 232 236 241 247 250 253 259 260 256 257 262 271 278 282 291 292 295 297 300 303 306 305 305 303 304 305 308 309 309 310 312 314 312 307 295 275 256 252
231 233 238 234 238 240 244 246 251 256 258 259 255 255 258 263 266 272 278 284 287 292 298 301 303 301 299 298 301 304 307 308 309 309 308 309 310 308 302 287 264 257 255
237 239 239 236 237 241 243 249 253 258 260 257 253 252 258 266 267 272 278 279 284 288 296 301 299 295 294 299 304 307 309 311 311 309 307 305 305 302 296 281 266 264 262
235 236 233 239 243 240 245 252 254 256 258 253 252 252 259 260 265 267 270 274 279 286 294 299 294 291 293 299 304 310 313 314 315 313 309 305 300 294 288 275 270 266 265
233 236 238 243 242 242 249 250 254 254 254 250 249 252 257 258 260 263 268 273 279 286 291 296 290 288 293 300 307 312 316 318 317 316 313 307 300 290 284 277 274 272 273
234 237 240 243 245 248 250 256 255 255 253 252 251 249 254 256 257 259 266 271 277 283 288 290 284 284 291 300 306 310 313 316 315 315 315 309 299 288 281 278 276 276 276
236 238 242 246 249 252 253 252 252 253 253 252 250 251 254 255 256 262 266 270 276 280 286 287 284 282 288 297 302 306 310 314 316 314 313 310 301 290 283 282 281 280 281
240 241 244 248 249 251 253 254 253 255 255 254 253 254 252 254 256 263 264 268 274 279 282 284 285 280 285 292 298 302 305 308 310 312 309 307 302 295 289 287 286 284 283
239 241 243 246 248 252 255 255 255 254 252 251 255 254 252 253 258 260 265 269 274 278 281 284 286 280 281 286 293 297 299 302 306 307 306 304 300 296 292 289 287 286 286
239 242 245 248 250 252 253 254 255 254 254 257 260 259 254 255 259 262 266 272 275 278 280 281 285 282 279 283 287 292 296 300 302 301 302 302 300 297 294 292 291 291 290
246 246 248 248 250 252 253 255 256 258 258 260 262 258 255 257 262 266 270 275 277 278 279 281 284 286 282 282 285 289 293 297 298 300 300 300 299 299 299 298 298 297 295
243 244 245 247 249 252 253 255 256 259 259 261 262 258 257 258 263 268 271 275 278 280 281 281 283 285 286 284 285 286 289 291 294 296 296 297 298 299 298 297 297 296 296
245 247 248 248 249 252 254 256 258 257 256 256 256 256 257 261 266 270 271 273 276 278 279 279 283 284 287 286 284 285 289 290 291 294 297 297 298 298 297 297 297 297 295
247 249 252 251 250 252 251 252 255 257 259 256 255 257 258 261 263 266 269 272 275 276 274 274 279 284 286 287 288 290 290 291 291 292 294 297 298 297 298 297 297 301 299
246 246 251 259 250 252 250 251 252 255 257 258 257 257 258 262 264 267 271 273 276 278 278 275 276 278 282 285 287 289 290 291 291 294 296 297 296 297 296 294 297 299 299
247 252 268 256 248 251 250 259 257 257 257 261 261 259 262 266 267 269 273 276 276 277 279 275 276 277 279 281 282 285 288 291 293 295 297 297 299 299 299 297 297 298 297
249 255 256 261 255 250 253 251 256 261 275 273 272 273 268 269 271 272 274 276 278 276 276 277 279 281 280 280 282 284 282 285 287 290 291 294 296 296 296 299 301 302 304
250 250 263 269 282 276 269 273 269 258 263 265 266 267 269 269 270 272 275 277 278 280 282 281 280 281 280 277 281 289 289 287 288 289 291 293 291 295 303 304 303 300 300
251 256 264 263 265 265 263 259 260 266 261 261 263 265 269 271 275 277 279 280 280 282 287 280 278 286 284 285 288 289 290 289 289 292 292 293 297 298 299 299 298 298 297
252 253 255 255 258 260 262 256 266 263 260 262 266 269 273 277 278 278 281 285 286 273 284 276 281 284 284 285 286 289 290 292 293 294 295 297 299 299 299 300 300 300 300
253 255 258 253 252 250 254 266 268 266 266 267 270 271 271 272 274 277 280 281 277 275 276 276 278 279 279 287 285 288 290 291 292 294 297 299 299 299 300 300 302 302 302
255 256 258 257 256 255 256 261 264 265 266 269 271 273 276 277 279 277 282 282 283 278 286 289 293 287 281 289 291 292 293 295 295 295 296 298 298 299 301 301 301 301 301
253 257 258 259 260 260 260 263 267 269 272 275 277 278 277 280 283 281 284 285 287 289 288 290 289 277 288 292 293 293 294 295 296 297 296 296 297 298 300 300 300 300 301
254 256 257 259 260 261 263 266 268 270 273 273 274 276 276 278 281 284 288 285 286 290 286 289 285 276 287 290 293 292 294 295 295 296 297 298 299 300 300 300 301 301 301
254 257 258 258 260 262 265 269 272 274 275 277 277 279 279 279 277 277 277 279 284 280 276 281 277 282 288 291 292 293 294 294 296 297 297 298 298 299 299 300 299 298 300